Погода в Нурате

Узбекистан     40°33′53″N   65°41′34″E
темп.,
°C
ветер,
м/с
пор.,
м/с
влажн.,
%
обл.,
%
осадки,
мм/ч
давл.,
гПа
погр.,
м
27 февраля, сб
сб2723:00−4ююз1235100 0.0 1030105
02:00−4юз1237100 0.0 1029121
05:00−4ююз1139100 0.0 102982
08:00−4ю234099 0.0 1029145
11:000ю462191 0.0 1029569
14:00+2ююз68170 0.0 1028900
17:00+3ююз45220 0.0 1027789
20:00−1ююв33300 0.0 102931
28 февраля, вс
вс2823:00−2ююв23310 0.0 102828
02:00−2ююв22330 0.0 102723
05:00−2вюв11380 0.0 102522
08:000юв11410 0.0 102422
11:00+7зюз01260 0.0 1022476
14:00+9зсз22270 0.0 1020936
17:00+9ссз212917 0.0 1019504
20:00+5вюв2342100 0.0 101924
1 марта, пн
пн123:00+3ю114299 0.0 102022
02:00+4ююв2334100 0.0 102022
05:00+4ююв233566 0.0 101924
08:00+5юв23360 0.0 101927
11:00+13ююз59220 0.0 10181101
14:00+15ююз1012200 0.0 10171500
17:00+15юз912220 0.0 10161356
20:00+9ююз34330 0.0 101845
2 марта, вт
вт223:00+8ююз233130 0.0 102025
02:00+7ююз2335100 0.0 102122
05:00+5зсз1144100 0.0 102022
08:00+5св114983 0.0 102222
11:00+11ссв223084 0.0 1022326
14:00+13с322890 0.0 1021800
17:00+13с322963 0.0 1020953
20:00+8ссв454365 0.0 1022169
3 марта, ср
ср323:00+6всв125145 0.0 102231
02:00+4ссв115582 0.0 102228
05:00+4ссв125689 0.0 102234
08:00+5ссв1254100 0.0 102265
11:00+8сз2346100 0.0 1021644
14:00+12зюз573881 0.0 10191761
17:00+12з453655 0.0 10181510
20:00+7ссв11600 0.0 101832